星链-5563 (STARLINK-5563 )

导读

STARLINK-5563是美国太空探索技术公司星链计划中的一颗卫星,于2023年3月29日发射升空,属于星链卫星互联网星座组网的组成部分。星链计划旨在通过大规模低轨卫星星座,为全球提供高速宽带互联网服务,该卫星入轨后,承担着为覆盖区域提供网络通信服务的任务。

Basic Information
目录编号:
56135
目录名称:
STARLINK-5563
国际标识:
2023-046AV
轨道中心:
EARTH
卫星名称:
星链-5563
卫星全名:
星链-5563 (STARLINK-5563 )
卫星状态:
已陨落 最后检测时间 2024-05-05
发射日期:
2023-03-29 UTC
国别 :
美国 (US)
星等 :
--
Orbit Information
数据来源 国际轨道数据
星历时间: 2024-05-05T01:58:48+0800
轨道信息已过期814天
半长轴: 6570.148km
偏心率: 0.0000691
轨道倾角: 42.985°
近地点辐角 237.378°
升交点赤经 119.209°
平近点角 247.803°
近地点: 191.559km
远地点: 192.467km
周期: 88.333分钟
每日圈数: 16.301969
Detailed Information
固有亮度:
5
最大亮度:
2.5
卫星平台:
Starlink v1.5
覆盖范围:
全球
运营商:
太空探索技术公司
运营商所在国:
美国
制造商(研发单位):
太空探索技术公司
制造商所在国:
美国
使用方式:
暂无
Satellite Introduction
星链(Starlink)计划是由太空探索技术公司(SpaceX)提出的一个巨型低轨卫星互联网星座项目,计划在2019年至2024年间在太空搭建由约1.2万颗卫星组成的“星链”网络,其中1584颗将部署在地球上空550千米处的近地轨道,并从2020年开始工作。该卫星已陨落。